Location: Poughquag
(41.6090°N, 73.6820°W)
Time: 12:48:40
(UTC-04:00)

A-11 Canister half - Pass Details

Date: 01 June 2020
Orbit: 1527 x 1682 km, 47.3° (Epoch: 06 July)

Event Time Altitude Azimuth Distance (km) Brightness Sun altitude
Rises 12:16:09 0° 291° (WNW) 4,703 11.4 69.1°
Reaches altitude 10° 12:19:11 10° 293° (WNW) 3,733 11.0 69.3°
Maximum altitude 12:28:41 78° 21° (NNE) 1,616 10.4 69.9°
Drops below altitude 10° 12:38:29 10° 107° (ESE) 3,845 11.4 70.3°
Sets 12:41:39 0° 109° (ESE) 4,850 11.7 70.4°
